QPF
0.00 0.01 0.02 0.01 0.00 0.00 0.00 0.00 0.00 0.00 0.00 0.00 0.00 0.00 0.01 0.01 0.01 0.01 0.00 0.00 0.00 0.00 0.00 0.00 0.00 0.00 0.00 0.00 0.00 0.01 0.02 0.02 0.01 0.00 0.00 0.00 0.01 0.01 0.01 0.01 0.01 0.02 0.02 0.02
0.00 0.00 0.01 0.00 0.00 0.00 0.00 0.00 0.00 0.00 0.00 0.00 0.00 0.00 0.01 0.01 0.01 0.00 0.00 0.00 0.00 0.00 0.00 0.00 0.00 0.00 0.00 0.01 0.01 0.01 0.01 0.02 0.01 0.01 0.00 0.01 0.01 0.01 0.01 0.01 0.01 0.02 0.02 0.02
0.01 0.00 0.00 0.00 0.00 0.00 0.00 0.00 0.00 0.00 0.00 0.00 0.01 0.01 0.00 0.00 0.00 0.00 0.00 0.00 0.00 0.00 0.01 0.01 0.00 0.00 0.01 0.01 0.01 0.01 0.01 0.02 0.02 0.01 0.01 0.01 0.01 0.01 0.01 0.01 0.01 0.01 0.01 0.02
0.01 0.01 0.01 0.00 0.00 0.00 0.00 0.00 0.00 0.00 0.00 0.00 0.00 0.00 0.00 0.00 0.00 0.00 0.00 0.01 0.01 0.01 0.01 0.01 0.01 0.01 0.01 0.01 0.01 0.01 0.02 0.02 0.02 0.02 0.01 0.01 0.01 0.01 0.01 0.01 0.01 0.02 0.01 0.02
0.01 0.01 0.01 0.01 0.01 0.01 0.01 0.01 0.00 0.00 0.00 0.00 0.00 0.00 0.00 0.00 0.00 0.00 0.01 0.01 0.01 0.01 0.01 0.01 0.01 0.01 0.01 0.01 0.01 0.01 0.01 0.01 0.01 0.01 0.01 0.01 0.01 0.01 0.01 0.02 0.02 0.02 0.02 0.02
0.01 0.02 0.02 0.01 0.01 0.01 0.01 0.01 0.01 0.00 0.00 0.00 0.00 0.01 0.02 0.01 0.01 0.01 0.00 0.00 0.01 0.01 0.02 0.01 0.01 0.01 0.01 0.00 0.00 0.00 0.00 0.01 0.01 0.00 0.00 0.01 0.01 0.01 0.01 0.01 0.01 0.01 0.01 0.00
0.02 0.02 0.03 0.03 0.01 0.01 0.01 0.02 0.01 0.01 0.01 0.01 0.01 0.01 0.01 0.01 0.02 0.01 0.01 0.01 0.01 0.01 0.01 0.01 0.01 0.01 0.00 0.00 0.00 0.00 0.01 0.01 0.01 0.01 0.01 0.01 0.01 0.01 0.01 0.01 0.01 0.01 0.01 0.01
0.02 0.03 0.04 0.02 0.01 0.02 0.02 0.01 0.00 0.00 0.01 0.00 0.01 0.01 0.01 0.01 0.01 0.01 0.01 0.01 0.00 0.00 0.01 0.01 0.01 0.01 0.01 0.01 0.01 0.01 0.01 0.01 0.02 0.02 0.01 0.01 0.02 0.01 0.02 0.01 0.01 0.01 0.01 0.01
0.02 0.03 0.02 0.02 0.02 0.02 0.01 0.01 0.00 0.00 0.00 0.00 0.01 0.00 0.00 0.00 0.00 0.01 0.00 0.00 0.00 0.00 0.01 0.01 0.01 0.02 0.02 0.02 0.02 0.02 0.02 0.02 0.02 0.01 0.02 0.02 0.02 0.02 0.02 0.02 0.02 0.01 0.01 0.01
0.03 0.02 0.01 0.01 0.01 0.01 0.01 0.01 0.00 0.00 0.00 0.00 0.00 0.00 0.00 0.00 0.01 0.01 0.01 0.01 0.00 0.01 0.01 0.01 0.02 0.01 0.01 0.01 0.01 0.01 0.01 0.02 0.02 0.02 0.02 0.02 0.02 0.02 0.02 0.02 0.02 0.01 0.02 0.02
0.02 0.02 0.02 0.01 0.01 0.01 0.01 0.01 0.01 0.00 0.00 0.00 0.00 0.00 0.00 0.00 0.00 0.00 0.01 0.00 0.00 0.00 0.01 0.01 0.02 0.02 0.02 0.01 0.01 0.01 0.01 0.01 0.02 0.02 0.02 0.03 0.02 0.02 0.02 0.02 0.02 0.02 0.01 0.02
0.02 0.01 0.02 0.01 0.01 0.01 0.01 0.01 0.01 0.01 0.00 0.00 0.00 0.00 0.00 0.00 0.00 0.00 0.00 0.00 0.00 0.00 0.01 0.01 0.02 0.02 0.02 0.02 0.01 0.01 0.01 0.01 0.01 0.01 0.03 0.03 0.03 0.03 0.02 0.02 0.01 0.01 0.02 0.02
0.00 0.00 0.01 0.01 0.00 0.00 0.01 0.01 0.01 0.01 0.01 0.00 0.01 0.01 0.00 0.00 0.00 0.00 0.00 0.00 0.00 0.00 0.01 0.01 0.02 0.02 0.03 0.03 0.02 0.02 0.02 0.02 0.02 0.02 0.02 0.02 0.02 0.02 0.02 0.01 0.01 0.01 0.01 0.01
0.00 0.01 0.01 0.01 0.00 0.00 0.01 0.01 0.01 0.01 0.00 0.01 0.01 0.01 0.01 0.01 0.01 0.00 0.00 0.00 0.01 0.01 0.01 0.02 0.03 0.03 0.03 0.03 0.03 0.03 0.02 0.03 0.02 0.02 0.01 0.01 0.01 0.01 0.01 0.01 0.00 0.00 0.01 0.01
0.01 0.01 0.01 0.01 0.00 0.00 0.01 0.01 0.01 0.01 0.00 0.01 0.01 0.01 0.01 0.01 0.01 0.01 0.01 0.01 0.01 0.01 0.02 0.02 0.03 0.03 0.03 0.03 0.02 0.02 0.02 0.02 0.02 0.02 0.01 0.01 0.01 0.01 0.00 0.00 0.01 0.01 0.01 0.01
0.01 0.01 0.01 0.01 0.01 0.01 0.01 0.01 0.01 0.01 0.01 0.01 0.01 0.01 0.01 0.01 0.02 0.02 0.01 0.01 0.01 0.01 0.01 0.02 0.03 0.03 0.03 0.03 0.03 0.02 0.02 0.03 0.02 0.01 0.01 0.01 0.01 0.01 0.00 0.00 0.01 0.01 0.01 0.02
0.01 0.01 0.02 0.02 0.01 0.01 0.01 0.01 0.01 0.01 0.01 0.01 0.01 0.02 0.02 0.02 0.02 0.02 0.01 0.01 0.01 0.01 0.02 0.03 0.03 0.03 0.03 0.03 0.02 0.02 0.02 0.02 0.02 0.02 0.02 0.02 0.02 0.01 0.01 0.01 0.01 0.01 0.01 0.01
0.01 0.01 0.01 0.02 0.01 0.01 0.01 0.01 0.01 0.01 0.02 0.02 0.01 0.02 0.02 0.02 0.02 0.02 0.02 0.02 0.02 0.02 0.03 0.03 0.04 0.03 0.03 0.04 0.04 0.03 0.02 0.03 0.02 0.02 0.02 0.02 0.02 0.02 0.02 0.02 0.02 0.02 0.02 0.02
0.01 0.01 0.01 0.01 0.01 0.01 0.01 0.01 0.02 0.02 0.02 0.03 0.03 0.02 0.02 0.02 0.03 0.02 0.03 0.03 0.03 0.04 0.03 0.03 0.05 0.05 0.03 0.04 0.06 0.05 0.04 0.04 0.05 0.04 0.04 0.03 0.03 0.03 0.03 0.02 0.02 0.02 0.02 0.02
0.01 0.01 0.01 0.01 0.02 0.02 0.02 0.03 0.04 0.04 0.03 0.04 0.05 0.04 0.04 0.03 0.03 0.03 0.03 0.03 0.03 0.03 0.04 0.04 0.03 0.06 0.06 0.06 0.08 0.07 0.06 0.05 0.05 0.06 0.05 0.04 0.03 0.03 0.03 0.02 0.02 0.02 0.02 0.02
0.03 0.03 0.03 0.04 0.03 0.03 0.03 0.03 0.04 0.05 0.05 0.05 0.07 0.06 0.05 0.04 0.04 0.04 0.04 0.04 0.03 0.03 0.03 0.02 0.03 0.05 0.07 0.08 0.07 0.06 0.07 0.06 0.04 0.04 0.05 0.04 0.03 0.03 0.04 0.04 0.04 0.04 0.03 0.02
0.05 0.05 0.04 0.04 0.04 0.03 0.02 0.03 0.04 0.05 0.05 0.05 0.05 0.04 0.04 0.04 0.04 0.04 0.04 0.04 0.04 0.03 0.03 0.02 0.03 0.05 0.06 0.09 0.09 0.07 0.06 0.06 0.06 0.05 0.05 0.04 0.03 0.03 0.03 0.04 0.05 0.06 0.06 0.04
0.08 0.08 0.08 0.08 0.07 0.07 0.05 0.04 0.05 0.04 0.05 0.05 0.04 0.04 0.05 0.05 0.05 0.04 0.04 0.03 0.02 0.02 0.03 0.03 0.04 0.05 0.07 0.09 0.13 0.11 0.07 0.07 0.07 0.07 0.06 0.05 0.04 0.05 0.06 0.05 0.04 0.04 0.04 0.03
0.08 0.09 0.10 0.09 0.08 0.06 0.05 0.05 0.05 0.05 0.05 0.06 0.06 0.06 0.06 0.06 0.05 0.03 0.02 0.02 0.02 0.02 0.02 0.02 0.03 0.05 0.06 0.08 0.17 0.17 0.10 0.07 0.07 0.07 0.06 0.04 0.03 0.03 0.04 0.04 0.03 0.03 0.03 0.03
0.09 0.10 0.10 0.09 0.08 0.06 0.04 0.04 0.05 0.06 0.06 0.06 0.05 0.06 0.07 0.08 0.06 0.03 0.02 0.01 0.01 0.02 0.02 0.03 0.03 0.03 0.04 0.05 0.08 0.11 0.11 0.08 0.07 0.06 0.05 0.05 0.04 0.04 0.04 0.03 0.03 0.02 0.02 0.02
0.09 0.10 0.09 0.09 0.08 0.06 0.05 0.05 0.06 0.06 0.06 0.05 0.04 0.05 0.08 0.09 0.05 0.03 0.02 0.02 0.02 0.02 0.02 0.03 0.04 0.04 0.05 0.06 0.07 0.07 0.07 0.06 0.05 0.04 0.05 0.05 0.05 0.04 0.04 0.03 0.03 0.03 0.02 0.03
0.07 0.07 0.06 0.07 0.07 0.07 0.06 0.06 0.07 0.06 0.05 0.04 0.04 0.03 0.03 0.03 0.03 0.03 0.02 0.02 0.02 0.02 0.03 0.03 0.03 0.04 0.06 0.06 0.07 0.07 0.06 0.05 0.05 0.04 0.05 0.07 0.07 0.05 0.04 0.04 0.04 0.04 0.03 0.03
MSLP
1011.34 1011.31 1011.23 1011.15 1011.09 1011.10 1011.18 1011.32 1011.50 1011.68 1011.84 1011.97 1012.06 1012.11 1012.16 1012.23 1012.33 1012.49 1012.71 1012.97 1013.24 1013.51 1013.74 1013.91 1014.01 1014.03 1013.99 1013.91 1013.80 1013.70 1013.60 1013.51 1013.43 1013.34 1013.23 1013.09 1012.89 1012.64 1012.34 1011.99 1011.60 1011.19 1010.78 1010.36
1012.31 1012.25 1012.04 1011.73 1011.39 1011.07 1010.81 1010.66 1010.60 1010.65 1010.78 1010.97 1011.21 1011.47 1011.75 1012.03 1012.33 1012.64 1012.96 1013.28 1013.59 1013.88 1014.13 1014.32 1014.46 1014.53 1014.53 1014.49 1014.40 1014.27 1014.13 1013.97 1013.79 1013.60 1013.39 1013.15 1012.88 1012.58 1012.25 1011.88 1011.50 1011.10 1010.69 1010.28
1013.28 1013.18 1012.87 1012.38 1011.78 1011.17 1010.62 1010.19 1009.92 1009.83 1009.90 1010.13 1010.47 1010.89 1011.35 1011.81 1012.27 1012.71 1013.12 1013.50 1013.85 1014.16 1014.43 1014.65 1014.83 1014.95 1015.00 1014.99 1014.92 1014.78 1014.59 1014.36 1014.09 1013.79 1013.47 1013.13 1012.78 1012.43 1012.06 1011.69 1011.31 1010.93 1010.54 1010.15
1014.03 1013.92 1013.52 1012.89 1012.10 1011.27 1010.49 1009.84 1009.40 1009.19 1009.22 1009.46 1009.88 1010.41 1011.00 1011.60 1012.18 1012.71 1013.18 1013.61 1013.98 1014.31 1014.60 1014.86 1015.08 1015.24 1015.34 1015.37 1015.31 1015.17 1014.94 1014.65 1014.29 1013.89 1013.48 1013.05 1012.64 1012.24 1011.86 1011.49 1011.13 1010.78 1010.43 1010.07
1014.38 1014.24 1013.78 1013.06 1012.16 1011.20 1010.28 1009.51 1008.96 1008.69 1008.70 1008.96 1009.44 1010.05 1010.74 1011.43 1012.09 1012.68 1013.19 1013.64 1014.02 1014.36 1014.67 1014.95 1015.20 1015.40 1015.55 1015.61 1015.57 1015.42 1015.17 1014.82 1014.40 1013.94 1013.45 1012.97 1012.51 1012.09 1011.71 1011.37 1011.05 1010.74 1010.43 1010.11
1014.20 1014.02 1013.53 1012.78 1011.85 1010.84 1009.89 1009.09 1008.54 1008.28 1008.32 1008.63 1009.17 1009.85 1010.61 1011.36 1012.06 1012.68 1013.21 1013.65 1014.03 1014.36 1014.67 1014.96 1015.23 1015.46 1015.63 1015.71 1015.69 1015.55 1015.28 1014.91 1014.45 1013.95 1013.42 1012.91 1012.44 1012.03 1011.68 1011.37 1011.10 1010.85 1010.60 1010.33
1013.49 1013.26 1012.76 1012.02 1011.12 1010.17 1009.29 1008.57 1008.11 1007.94 1008.06 1008.47 1009.08 1009.84 1010.65 1011.44 1012.16 1012.78 1013.30 1013.72 1014.07 1014.38 1014.67 1014.95 1015.22 1015.45 1015.64 1015.73 1015.72 1015.58 1015.31 1014.93 1014.46 1013.94 1013.41 1012.90 1012.44 1012.06 1011.75 1011.50 1011.29 1011.11 1010.91 1010.69
1012.38 1012.08 1011.57 1010.88 1010.08 1009.27 1008.54 1007.99 1007.69 1007.68 1007.95 1008.47 1009.19 1010.01 1010.87 1011.68 1012.40 1013.01 1013.50 1013.88 1014.19 1014.46 1014.72 1014.97 1015.22 1015.44 1015.62 1015.71 1015.70 1015.56 1015.29 1014.91 1014.44 1013.92 1013.40 1012.92 1012.50 1012.16 1011.90 1011.71 1011.57 1011.45 1011.31 1011.13
1011.08 1010.71 1010.19 1009.58 1008.92 1008.29 1007.77 1007.45 1007.37 1007.56 1008.00 1008.66 1009.48 1010.37 1011.26 1012.08 1012.79 1013.36 1013.81 1014.14 1014.40 1014.62 1014.83 1015.04 1015.25 1015.45 1015.60 1015.68 1015.65 1015.51 1015.24 1014.86 1014.40 1013.90 1013.40 1012.94 1012.56 1012.27 1012.07 1011.93 1011.85 1011.78 1011.69 1011.55
1009.84 1009.39 1008.89 1008.36 1007.85 1007.43 1007.15 1007.07 1007.22 1007.61 1008.23 1009.02 1009.93 1010.87 1011.77 1012.58 1013.26 1013.79 1014.18 1014.46 1014.67 1014.84 1014.99 1015.16 1015.33 1015.49 1015.61 1015.65 1015.61 1015.44 1015.17 1014.79 1014.34 1013.85 1013.38 1012.95 1012.61 1012.35 1012.19 1012.11 1012.07 1012.04 1011.99 1011.88
1008.87 1008.36 1007.88 1007.44 1007.08 1006.86 1006.80 1006.94 1007.30 1007.88 1008.63 1009.52 1010.48 1011.44 1012.33 1013.10 1013.73 1014.21 1014.55 1014.78 1014.94 1015.06 1015.17 1015.29 1015.42 1015.54 1015.62 1015.63 1015.56 1015.38 1015.09 1014.71 1014.26 1013.79 1013.33 1012.93 1012.60 1012.38 1012.24 1012.19 1012.18 1012.18 1012.15 1012.06
1008.31 1007.77 1007.31 1006.96 1006.74 1006.68 1006.80 1007.12 1007.64 1008.34 1009.17 1010.11 1011.07 1012.00 1012.84 1013.56 1014.13 1014.55 1014.84 1015.02 1015.14 1015.23 1015.31 1015.40 1015.49 1015.57 1015.62 1015.60 1015.50 1015.30 1015.00 1014.61 1014.17 1013.71 1013.26 1012.88 1012.57 1012.36 1012.24 1012.19 1012.20 1012.21 1012.19 1012.12
1008.15 1007.60 1007.19 1006.92 1006.81 1006.88 1007.13 1007.57 1008.17 1008.92 1009.78 1010.69 1011.61 1012.47 1013.24 1013.88 1014.38 1014.74 1014.99 1015.14 1015.23 1015.30 1015.36 1015.43 1015.50 1015.56 1015.58 1015.54 1015.42 1015.21 1014.90 1014.52 1014.09 1013.64 1013.21 1012.83 1012.54 1012.33 1012.22 1012.18 1012.18 1012.19 1012.18 1012.11
1008.25 1007.74 1007.38 1007.20 1007.18 1007.35 1007.68 1008.17 1008.81 1009.55 1010.37 1011.22 1012.05 1012.82 1013.49 1014.04 1014.47 1014.78 1014.98 1015.11 1015.20 1015.26 1015.32 1015.39 1015.45 1015.49 1015.50 1015.45 1015.32 1015.10 1014.80 1014.43 1014.02 1013.59 1013.18 1012.83 1012.55 1012.35 1012.24 1012.19 1012.19 1012.20 1012.18 1012.11
1008.43 1007.99 1007.72 1007.62 1007.69 1007.92 1008.30 1008.81 1009.44 1010.14 1010.88 1011.64 1012.36 1013.02 1013.59 1014.06 1014.42 1014.68 1014.86 1014.98 1015.07 1015.14 1015.21 1015.27 1015.34 1015.38 1015.38 1015.32 1015.20 1014.99 1014.71 1014.36 1013.98 1013.59 1013.21 1012.89 1012.63 1012.45 1012.35 1012.30 1012.29 1012.29 1012.27 1012.19
1008.49 1008.16 1007.99 1007.99 1008.14 1008.43 1008.85 1009.36 1009.95 1010.60 1011.26 1011.92 1012.54 1013.10 1013.58 1013.98 1014.29 1014.52 1014.69 1014.81 1014.90 1014.98 1015.06 1015.13 1015.19 1015.23 1015.23 1015.17 1015.05 1014.86 1014.61 1014.31 1013.97 1013.63 1013.31 1013.03 1012.81 1012.65 1012.56 1012.52 1012.50 1012.49 1012.46 1012.37
1008.29 1008.09 1008.06 1008.17 1008.41 1008.77 1009.22 1009.74 1010.30 1010.90 1011.50 1012.08 1012.62 1013.10 1013.52 1013.86 1014.14 1014.36 1014.52 1014.64 1014.74 1014.83 1014.91 1014.98 1015.03 1015.06 1015.05 1015.00 1014.89 1014.73 1014.51 1014.26 1013.98 1013.70 1013.44 1013.22 1013.04 1012.92 1012.85 1012.81 1012.80 1012.78 1012.73 1012.63
1007.78 1007.74 1007.85 1008.09 1008.44 1008.87 1009.37 1009.91 1010.47 1011.04 1011.60 1012.14 1012.63 1013.07 1013.45 1013.77 1014.04 1014.24 1014.41 1014.54 1014.63 1014.72 1014.78 1014.84 1014.87 1014.89 1014.87 1014.81 1014.72 1014.58 1014.41 1014.21 1013.99 1013.78 1013.59 1013.42 1013.30 1013.21 1013.16 1013.14 1013.12 1013.09 1013.03 1012.92
1007.03 1007.16 1007.42 1007.78 1008.24 1008.76 1009.32 1009.90 1010.48 1011.06 1011.61 1012.13 1012.60 1013.03 1013.40 1013.72 1013.98 1014.18 1014.35 1014.47 1014.56 1014.63 1014.67 1014.70 1014.71 1014.70 1014.67 1014.60 1014.52 1014.40 1014.27 1014.12 1013.97 1013.83 1013.70 1013.59 1013.52 1013.47 1013.44 1013.42 1013.40 1013.37 1013.29 1013.17
1006.18 1006.46 1006.87 1007.36 1007.92 1008.53 1009.15 1009.78 1010.39 1010.99 1011.55 1012.07 1012.55 1012.97 1013.35 1013.66 1013.92 1014.13 1014.29 1014.40 1014.47 1014.51 1014.53 1014.53 1014.51 1014.47 1014.42 1014.35 1014.28 1014.19 1014.10 1014.00 1013.91 1013.82 1013.75 1013.70 1013.66 1013.64 1013.63 1013.62 1013.60 1013.55 1013.47 1013.34
1005.41 1005.83 1006.35 1006.96 1007.60 1008.28 1008.95 1009.62 1010.26 1010.87 1011.43 1011.96 1012.44 1012.86 1013.23 1013.55 1013.80 1014.00 1014.14 1014.24 1014.29 1014.31 1014.30 1014.27 1014.22 1014.17 1014.11 1014.05 1013.99 1013.93 1013.88 1013.83 1013.79 1013.75 1013.73 1013.72 1013.72 1013.72 1013.73 1013.72 1013.70 1013.65 1013.57 1013.44
1004.86 1005.39 1006.01 1006.68 1007.38 1008.09 1008.79 1009.47 1010.11 1010.71 1011.27 1011.78 1012.24 1012.65 1013.01 1013.30 1013.54 1013.72 1013.85 1013.92 1013.95 1013.95 1013.92 1013.88 1013.83 1013.78 1013.73 1013.68 1013.65 1013.63 1013.62 1013.61 1013.61 1013.62 1013.64 1013.66 1013.69 1013.71 1013.73 1013.74 1013.72 1013.69 1013.62 1013.51
1004.63 1005.23 1005.90 1006.60 1007.32 1008.03 1008.71 1009.36 1009.97 1010.53 1011.05 1011.52 1011.94 1012.31 1012.63 1012.89 1013.10 1013.25 1013.35 1013.41 1013.43 1013.42 1013.39 1013.35 1013.32 1013.28 1013.26 1013.26 1013.26 1013.28 1013.32 1013.35 1013.40 1013.45 1013.50 1013.55 1013.60 1013.64 1013.68 1013.71 1013.72 1013.71 1013.68 1013.61
1004.70 1005.34 1006.03 1006.72 1007.42 1008.08 1008.71 1009.29 1009.83 1010.33 1010.77 1011.18 1011.53 1011.84 1012.10 1012.31 1012.47 1012.59 1012.67 1012.71 1012.73 1012.73 1012.72 1012.71 1012.71 1012.72 1012.74 1012.78 1012.84 1012.91 1012.99 1013.07 1013.15 1013.24 1013.32 1013.40 1013.47 1013.55 1013.62 1013.68 1013.74 1013.78 1013.80 1013.80
1005.03 1005.67 1006.34 1007.00 1007.63 1008.22 1008.77 1009.26 1009.71 1010.10 1010.46 1010.77 1011.04 1011.27 1011.46 1011.62 1011.74 1011.82 1011.88 1011.92 1011.94 1011.95 1011.97 1012.00 1012.05 1012.11 1012.19 1012.29 1012.40 1012.52 1012.64 1012.76 1012.88 1012.99 1013.11 1013.21 1013.33 1013.44 1013.55 1013.67 1013.80 1013.91 1014.02 1014.10
1005.50 1006.13 1006.75 1007.34 1007.89 1008.39 1008.84 1009.24 1009.58 1009.88 1010.14 1010.36 1010.54 1010.70 1010.82 1010.92 1011.00 1011.05 1011.09 1011.12 1011.16 1011.19 1011.25 1011.32 1011.41 1011.52 1011.65 1011.79 1011.95 1012.11 1012.27 1012.42 1012.57 1012.71 1012.86 1013.00 1013.15 1013.32 1013.49 1013.69 1013.89 1014.10 1014.31 1014.50
1006.00 1006.59 1007.15 1007.67 1008.14 1008.55 1008.90 1009.21 1009.46 1009.67 1009.85 1010.00 1010.11 1010.21 1010.28 1010.33 1010.37 1010.40 1010.42 1010.45 1010.48 1010.54 1010.61 1010.71 1010.84 1010.98 1011.15 1011.32 1011.51 1011.69 1011.87 1012.05 1012.22 1012.39 1012.56 1012.74 1012.94 1013.17 1013.41 1013.69 1013.99 1014.30 1014.61 1014.92
Thickness
5797 5808 5811 5812 5815 5822 5817 5816 5805 5806 5810 5821 5829 5830 5833 5835 5834 5831 5827 5825 5823 5820 5818 5817 5815 5814 5812 5810 5808 5805 5799 5795 5791 5790 5787 5784 5781 5778 5775 5772 5770 5766 5763 5760
5783 5799 5804 5803 5813 5818 5817 5819 5814 5809 5808 5825 5829 5827 5823 5825 5825 5821 5819 5819 5818 5816 5813 5811 5810 5808 5807 5806 5804 5801 5796 5792 5790 5787 5784 5781 5778 5775 5771 5768 5766 5762 5759 5756
5765 5786 5789 5783 5803 5808 5811 5816 5812 5800 5803 5817 5816 5813 5813 5815 5816 5813 5813 5813 5812 5811 5809 5807 5807 5805 5802 5802 5801 5797 5792 5789 5786 5783 5779 5777 5775 5771 5767 5764 5761 5757 5754 5751
5762 5763 5749 5787 5818 5816 5808 5807 5809 5805 5805 5810 5809 5810 5812 5812 5808 5806 5806 5806 5806 5807 5806 5806 5805 5803 5801 5799 5796 5792 5788 5785 5783 5779 5775 5773 5770 5766 5763 5760 5756 5753 5750 5747
5751 5748 5761 5784 5803 5806 5796 5790 5802 5799 5800 5804 5808 5803 5799 5804 5803 5800 5801 5801 5802 5803 5803 5802 5800 5799 5796 5793 5790 5786 5782 5780 5778 5775 5770 5767 5764 5761 5759 5755 5752 5749 5747 5743
5745 5740 5742 5765 5795 5809 5797 5773 5793 5795 5792 5793 5793 5778 5777 5791 5793 5792 5793 5795 5795 5796 5795 5793 5793 5793 5789 5786 5784 5780 5778 5776 5774 5771 5767 5763 5760 5757 5755 5751 5748 5745 5742 5739
5736 5737 5746 5770 5788 5792 5762 5759 5783 5787 5786 5784 5777 5773 5780 5785 5784 5784 5783 5785 5786 5786 5784 5784 5785 5784 5780 5779 5777 5777 5776 5773 5769 5766 5763 5760 5756 5753 5749 5746 5743 5740 5737 5734
5733 5727 5732 5765 5772 5760 5756 5771 5776 5778 5779 5776 5773 5775 5775 5775 5774 5774 5774 5775 5776 5775 5775 5777 5777 5775 5772 5770 5772 5772 5770 5767 5764 5761 5759 5756 5751 5747 5744 5740 5736 5733 5730 5727
5731 5732 5748 5759 5757 5761 5766 5764 5767 5769 5771 5769 5766 5765 5764 5763 5763 5764 5764 5765 5766 5766 5765 5767 5768 5766 5762 5764 5765 5764 5762 5759 5758 5756 5752 5750 5745 5740 5737 5734 5731 5728 5724 5721
5724 5733 5743 5750 5755 5757 5759 5757 5761 5763 5764 5762 5757 5756 5754 5754 5754 5754 5754 5755 5756 5756 5754 5754 5757 5757 5757 5758 5759 5757 5754 5752 5750 5748 5745 5743 5740 5736 5731 5729 5726 5724 5720 5717
5714 5722 5730 5736 5741 5745 5748 5751 5752 5753 5753 5752 5749 5746 5745 5745 5745 5745 5746 5746 5746 5745 5745 5746 5747 5749 5751 5752 5751 5748 5747 5745 5743 5742 5739 5735 5733 5730 5728 5725 5724 5719 5717 5714
5705 5716 5718 5721 5732 5737 5736 5737 5738 5739 5739 5741 5740 5738 5737 5736 5738 5737 5737 5738 5737 5737 5737 5738 5739 5740 5743 5744 5743 5740 5738 5737 5736 5734 5732 5728 5725 5722 5720 5719 5717 5714 5712 5708
5708 5714 5716 5719 5724 5728 5727 5728 5730 5729 5729 5729 5730 5730 5729 5728 5729 5729 5729 5729 5728 5728 5729 5730 5731 5731 5733 5735 5735 5733 5731 5730 5729 5728 5726 5722 5720 5716 5711 5709 5707 5705 5704 5701
5702 5703 5701 5706 5710 5715 5717 5719 5720 5720 5721 5720 5720 5721 5721 5720 5721 5720 5720 5721 5722 5722 5722 5722 5723 5723 5726 5727 5727 5727 5726 5725 5723 5722 5721 5719 5715 5712 5708 5704 5700 5697 5694 5690
5691 5693 5695 5699 5703 5705 5706 5707 5706 5707 5708 5710 5711 5711 5711 5710 5710 5711 5713 5714 5714 5714 5713 5713 5713 5715 5718 5719 5719 5720 5720 5719 5718 5717 5716 5713 5710 5707 5703 5699 5695 5691 5688 5683
5681 5685 5687 5688 5690 5693 5694 5695 5695 5695 5697 5699 5700 5701 5703 5703 5703 5704 5705 5706 5704 5704 5705 5705 5705 5708 5709 5710 5710 5711 5711 5710 5709 5709 5708 5706 5703 5700 5697 5693 5690 5686 5682 5678
5670 5672 5675 5676 5680 5682 5685 5687 5688 5688 5689 5690 5692 5693 5694 5694 5694 5694 5695 5697 5697 5697 5698 5698 5698 5700 5701 5701 5701 5703 5703 5702 5701 5701 5700 5699 5697 5694 5691 5687 5684 5680 5677 5674
5668 5668 5670 5670 5673 5675 5678 5680 5682 5682 5682 5683 5685 5685 5684 5684 5684 5685 5687 5688 5688 5688 5689 5690 5691 5691 5692 5693 5693 5694 5694 5694 5693 5692 5692 5690 5689 5687 5684 5680 5677 5674 5671 5667
5662 5663 5665 5667 5670 5671 5672 5673 5674 5675 5676 5675 5674 5675 5676 5677 5677 5678 5678 5678 5677 5677 5679 5681 5680 5682 5683 5684 5684 5685 5685 5685 5684 5683 5682 5680 5679 5678 5676 5673 5671 5668 5665 5662
5657 5659 5660 5662 5664 5664 5664 5665 5665 5665 5666 5666 5666 5666 5667 5668 5670 5670 5669 5668 5669 5670 5671 5671 5672 5674 5675 5676 5675 5677 5677 5677 5675 5675 5674 5672 5670 5669 5668 5666 5664 5661 5658 5655
5651 5652 5653 5653 5655 5656 5657 5657 5657 5656 5656 5657 5656 5656 5657 5659 5661 5661 5660 5660 5662 5662 5663 5662 5663 5664 5665 5665 5666 5668 5668 5667 5667 5666 5665 5664 5663 5661 5659 5657 5656 5653 5651 5649
5643 5644 5644 5645 5646 5647 5649 5650 5650 5649 5649 5649 5649 5650 5650 5651 5652 5653 5654 5653 5654 5653 5654 5656 5656 5655 5656 5656 5658 5659 5659 5659 5659 5659 5657 5656 5655 5654 5652 5650 5649 5647 5643 5641
5636 5636 5637 5638 5639 5639 5642 5644 5644 5644 5643 5642 5642 5642 5643 5644 5645 5645 5645 5647 5648 5645 5647 5648 5647 5646 5646 5648 5650 5651 5652 5652 5652 5651 5651 5650 5649 5647 5645 5644 5642 5640 5637 5635
5629 5630 5631 5633 5634 5633 5634 5636 5638 5638 5638 5637 5637 5637 5637 5637 5638 5640 5640 5639 5639 5639 5639 5638 5637 5638 5638 5641 5643 5645 5645 5645 5644 5644 5644 5643 5642 5641 5639 5637 5635 5634 5631 5629
5624 5625 5626 5627 5627 5628 5630 5631 5632 5632 5632 5632 5632 5633 5633 5632 5632 5633 5634 5633 5632 5632 5633 5632 5631 5631 5633 5635 5636 5637 5637 5637 5637 5637 5637 5636 5634 5633 5631 5630 5628 5626 5624 5622
5619 5620 5621 5621 5621 5623 5625 5626 5626 5626 5627 5625 5626 5626 5627 5627 5627 5627 5627 5627 5627 5625 5627 5627 5627 5625 5627 5628 5629 5630 5630 5630 5630 5630 5630 5629 5628 5627 5625 5623 5621 5619 5617 5615
5615 5616 5616 5616 5617 5619 5619 5620 5619 5619 5619 5618 5617 5618 5619 5620 5620 5620 5621 5621 5621 5621 5621 5621 5622 5622 5622 5622 5623 5623 5624 5624 5623 5622 5623 5622 5620 5619 5617 5615 5613 5610 5609 5606